FW5813 Weather Reports


time (UTC)temp
F
wind
direction
speed
knots
gust
knots
rain 1hr
in
rain 24hr
in
rain mn
in
humidity
%
barometer
mb
20260503211737 64 175 4.3 11.3 0.00 0.00 0.00 46 1013.8
20260503211237 64 180 2.6 12.2 0.00 0.00 0.00 45 1013.9
20260503210738 64 185 7.0 12.2 0.00 0.00 0.00 45 1013.5
20260503210237 64 226 5.2 10.4 0.00 0.00 0.00 45 1013.7
20260503205737 64 83 2.6 10.4 0.00 0.00 0.00 45 1013.8
20260503205237 65 156 2.6 10.4 0.00 0.00 0.00 45 1013.7
20260503204737 64 185 5.2 9.6 0.00 0.00 0.00 44 1013.8
20260503204238 65 189 7.0 8.7 0.00 0.00 0.00 44 1014.1
20260503203738 65 197 5.2 8.7 0.00 0.00 0.00 44 1014.0
20260503203237 65 183 3.5 11.3 0.00 0.00 0.00 44 1014.0
20260503202237 65 174 3.5 12.2 0.00 0.00 0.00 43 1013.9
20260503201737 65 116 1.7 12.2 0.00 0.00 0.00 43 1013.9
20260503201237 65 175 1.7 8.7 0.00 0.00 0.00 43 1014.0
20260503200739 65 202 1.7 8.7 0.00 0.00 0.00 42 1013.9
20260503200236 66 185 7.0 8.7 0.00 0.00 0.00 42 1014.1
20260503195737 66 207 3.5 16.5 0.00 0.00 0.00 42 1014.1
20260503195237 66 200 4.3 16.5 0.00 0.00 0.00 41 1014.4
20260503194737 66 184 3.5 10.4 0.00 0.00 0.00 41 1014.4
20260503194237 67 198 5.2 10.4 0.00 0.00 0.00 41 1014.2
20260503193739 67 217 6.1 11.3 0.00 0.00 0.00 40 1014.4
20260503193237 67 208 7.8 11.3 0.00 0.00 0.00 40 1014.2
20260503192738 67 223 7.8 11.3 0.00 0.00 0.00 40 1014.2
20260503192238 67 209 3.5 12.2 0.00 0.00 0.00 40 1014.0
20260503191237 68 227 4.3 13.9 0.00 0.00 0.00 40 1014.3
20260503185737 68 200 8.7 15.6 0.00 0.00 0.00 39 1014.2
20260503185237 68 186 2.6 15.6 0.00 0.00 0.00 39 1014.0
20260503184738 68 305 1.7 13.0 0.00 0.00 0.00 39 1013.8
20260503184237 68 141 5.2 13.0 0.00 0.00 0.00 39 1013.8
20260503183738 69 216 4.3 12.2 0.00 0.00 0.00 39 1013.9
20260503183239 69 303 4.3 10.4 0.00 0.00 0.00 39 1014.0
20260503182736 69 191 2.6 10.4 0.00 0.00 0.00 39 1013.8
20260503182237 69 209 5.2 11.3 0.00 0.00 0.00 39 1013.9
20260503181737 69 187 4.3 11.3 0.00 0.00 0.00 38 1013.8
20260503181237 69 144 2.6 9.6 0.00 0.00 0.00 38 1013.8
20260503180738 70 147 5.2 9.6 0.00 0.00 0.00 38 1013.8
20260503180236 70 178 5.2 10.4 0.00 0.00 0.00 38 1013.8
20260503175737 70 173 4.3 10.4 0.00 0.00 0.00 38 1013.5
20260503175237 70 199 6.1 9.6 0.00 0.00 0.00 37 1013.7
20260503174237 71 293 2.6 15.6 0.00 0.00 0.00 37 1013.8
20260503173737 71 220 6.1 15.6 0.00 0.00 0.00 37 1013.7
20260503172237 72 206 7.8 13.0 0.00 0.00 0.00 36 1013.8
20260503171737 72 201 4.3 13.0 0.00 0.00 0.00 36 1013.8
20260503171237 73 189 5.2 9.6 0.00 0.00 0.00 36 1013.9
20260503170737 73 161 4.3 9.6 0.00 0.00 0.00 36 1013.5
20260503170237 73 155 3.5 11.3 0.00 0.00 0.00 35 1013.3
20260503150236 76 189 6.1 14.8 0.00 0.00 0.00 33 1014.3
20260503140237 76 207 12.2 15.6 0.00 0.00 0.00 33 1014.8
20260503131238 76 166 5.2 10.4 0.00 0.00 0.00 34 1015.3
20260503130737 76 166 5.2 10.4 0.00 0.00 0.00 34 1015.6
20260503130237 76 166 5.2 10.4 0.00 0.00 0.00 34 1015.7
20260503110722 72 320 0.0 7.8 0.00 0.00 0.00 39 1017.0
20260503100210 74 355 0.0 0.0 0.00 0.00 0.00 40 1017.7
20260503090210 71 311 0.0 0.0 0.00 0.00 0.00 41 1018.2
20260503081211 68 327 0.0 0.0 0.00 0.00 0.00 44 1018.1
20260503080708 68 321 0.0 0.0 0.00 0.00 0.00 43 1018.2
20260503080208 67 350 0.0 0.0 0.00 0.00 0.00 45 1018.4
20260503072649 64 61 0.0 0.0 0.00 0.00 0.00 48 1018.1
20260503072149 64 325 0.0 0.0 0.00 0.00 0.00 48 1018.2
20260503071648 63 324 0.0 0.0 0.00 0.00 0.00 49 1017.9
20260503071148 62 316 0.0 0.0 0.00 0.00 0.00 49 1018.4
20260503070642 62 63 0.0 0.0 0.00 0.00 0.00 51 1017.9
20260503070141 62 12 0.0 0.0 0.00 0.00 0.00 49 1018.3
20260503060128 54 319 0.0 0.0 0.00 0.00 0.00 66 1018.3
20260503055127 52 265 0.0 0.0 0.00 0.00 0.00 70 1018.3
20260503054627 51 264 0.0 0.0 0.00 0.00 0.00 71 1018.1
20260503054126 50 311 0.0 0.0 0.00 0.00 0.00 71 1018.4
20260503053125 50 311 0.0 0.0 0.00 0.00 0.00 70 1017.7
20260503052626 49 311 0.0 0.0 0.00 0.00 0.00 70 1018.1
20260503052125 49 311 0.0 0.0 0.00 0.00 0.00 70 1018.3
20260503051126 48 311 0.0 0.0 0.00 0.00 0.00 71 1018.2
20260503050625 47 311 0.0 0.0 0.00 0.00 0.00 72 1018.3
20260503050125 47 310 0.0 0.0 0.00 0.00 0.00 73 1017.9
20260503045625 46 310 0.0 0.0 0.00 0.00 0.00 74 1018.2
20260503045125 45 310 0.0 0.0 0.00 0.00 0.00 76 1017.8
20260503044626 44 310 0.0 0.0 0.00 0.00 0.00 78 1017.7
20260503044125 42 310 0.0 0.0 0.00 0.00 0.00 81 1017.9
20260503043625 42 309 0.0 0.0 0.00 0.00 0.00 81 1018.2
20260503043126 41 309 0.0 0.0 0.00 0.00 0.00 82 1017.8
20260503042625 41 309 0.0 0.0 0.00 0.00 0.00 83 1018.1
20260503042126 41 309 0.0 0.0 0.00 0.00 0.00 82 1017.8
20260503041125 41 309 0.0 0.0 0.00 0.00 0.00 82 1017.8
20260503040121 41 309 0.0 0.0 0.00 0.00 0.00 81 1017.8
20260503035621 42 309 0.0 0.0 0.00 0.00 0.00 80 1017.8
20260503035121 42 309 0.0 0.0 0.00 0.00 0.00 79 1017.8
20260503034621 42 309 0.0 0.0 0.00 0.00 0.00 79 1017.8
20260503034121 41 309 0.0 0.0 0.00 0.00 0.00 81 1017.8
20260503033613 41 309 0.0 0.0 0.00 0.00 0.00 82 1017.5
20260503033114 41 309 0.0 0.0 0.00 0.00 0.00 81 1017.8
20260503032613 41 309 0.0 0.0 0.00 0.00 0.00 81 1018.1
20260503032113 41 309 0.0 0.0 0.00 0.00 0.00 81 1018.2
20260503031614 41 309 0.0 0.0 0.00 0.00 0.00 82 1017.9
20260503031113 41 309 0.0 0.0 0.00 0.00 0.00 82 1017.9
20260503030104 41 309 0.0 0.0 0.00 0.00 0.00 82 1017.6
20260503025104 41 309 0.0 0.0 0.00 0.00 0.00 80 1017.9
20260503024604 42 309 0.0 0.0 0.00 0.00 0.00 80 1017.6
20260503024105 42 309 0.0 0.0 0.00 0.00 0.00 79 1017.6
20260503023556 42 309 0.0 0.0 0.00 0.00 0.00 80 1017.6
20260503022559 42 309 0.0 0.0 0.00 0.00 0.00 80 1017.7
20260503022100 42 309 0.0 0.0 0.00 0.00 0.00 80 1017.7
20260503021559 41 309 0.0 0.0 0.00 0.00 0.00 79 1017.9
20260503021059 41 309 0.0 0.0 0.00 0.00 0.00 80 1017.7
20260503020551 41 309 0.0 0.0 0.00 0.00 0.00 80 1017.6
20260503020104 41 309 0.0 0.0 0.00 0.00 0.00 81 1017.8
20260503015551 41 309 0.0 0.0 0.00 0.00 0.00 81 1017.9
20260503014551 40 309 0.0 0.0 0.00 0.00 0.00 83 1017.6
20260503014051 40 309 0.0 0.0 0.00 0.00 0.00 82 1017.6
20260503013544 41 309 0.0 0.0 0.00 0.00 0.00 82 1017.7
20260503013044 41 309 0.0 0.0 0.00 0.00 0.00 82 1017.6
20260503012544 41 309 0.0 0.0 0.00 0.00 0.00 81 1017.6
20260503012044 41 309 0.0 0.0 0.00 0.00 0.00 81 1017.7
20260503011544 41 309 0.0 0.0 0.00 0.00 0.00 82 1017.8
20260503011035 41 309 0.0 0.0 0.00 0.00 0.00 82 1017.9
20260503010538 41 309 0.0 0.0 0.00 0.00 0.00 81 1017.6
20260503010050 42 309 0.0 0.0 0.00 0.00 0.00 80 1017.8
20260503005537 42 309 0.0 0.0 0.00 0.00 0.00 80 1017.9
20260503005036 42 309 0.0 0.0 0.00 0.00 0.00 80 1017.9
20260503004537 42 309 0.0 0.0 0.00 0.00 0.00 80 1017.8
20260503004038 42 309 0.0 0.0 0.00 0.00 0.00 79 1017.9
20260503003537 42 309 0.0 0.0 0.00 0.00 0.00 79 1018.2
20260503003038 43 309 0.0 0.0 0.00 0.00 0.00 78 1018.1
20260503002539 43 309 0.0 0.0 0.00 0.00 0.00 78 1018.1
20260503002037 43 309 0.0 0.0 0.00 0.00 0.00 78 1018.1
20260503001538 43 309 0.0 0.0 0.00 0.00 0.00 78 1018.2
20260503001051 43 309 0.0 0.0 0.00 0.00 0.00 77 1018.2
20260503000537 43 309 0.0 0.0 0.00 0.00 0.00 77 1018.2
20260503000050 43 309 0.0 0.0 0.00 0.00 0.00 78 1018.1
20260502235537 43 309 0.0 0.0 0.00 0.00 0.00 79 1018.6
20260502235037 42 309 0.0 0.0 0.00 0.00 0.00 78 1018.6
20260502234538 43 309 0.0 0.0 0.00 0.00 0.00 78 1018.2
20260502234037 43 309 0.0 0.0 0.00 0.00 0.00 79 1018.4
20260502233538 43 309 0.0 0.0 0.00 0.00 0.00 79 1018.5
20260502232538 44 309 0.0 0.0 0.00 0.00 0.00 79 1018.5
20260502232038 44 309 0.0 0.0 0.00 0.00 0.00 79 1018.5
20260502231539 44 309 0.0 0.0 0.00 0.00 0.00 78 1018.6
20260502231051 44 309 0.0 0.0 0.00 0.00 0.00 77 1018.4
20260502230537 44 310 0.0 0.0 0.00 0.00 0.00 78 1018.3
20260502230050 44 309 0.0 0.0 0.00 0.00 0.00 78 1018.4
20260502225538 44 310 0.0 0.0 0.00 0.00 0.00 77 1018.5
20260502225039 45 310 0.0 0.0 0.00 0.00 0.00 76 1018.7
20260502224538 45 309 0.0 0.0 0.00 0.00 0.00 76 1018.7
20260502224037 45 310 0.0 0.0 0.00 0.00 0.00 74 1018.6
20260502223537 46 310 0.0 0.0 0.00 0.00 0.00 74 1018.4
20260502223038 45 310 0.0 0.0 0.00 0.00 0.00 74 1018.8
20260502222537 46 310 0.0 0.0 0.00 0.00 0.00 74 1018.8
20260502222051 46 310 0.0 0.0 0.00 0.00 0.00 73 1018.8
20260502221538 46 310 0.0 0.0 0.00 0.00 0.00 73 1018.9
20260502221037 46 310 0.0 0.0 0.00 0.00 0.00 73 1018.5
20260502220537 46 310 0.0 0.0 0.00 0.00 0.00 72 1018.9
20260502220038 46 310 0.0 0.0 0.00 0.00 0.00 72 1019.1
20260502215537 46 310 0.0 0.0 0.00 0.00 0.00 72 1018.8
20260502215038 47 310 0.0 0.0 0.00 0.00 0.00 71 1019.0
20260502214537 47 310 0.0 0.0 0.00 0.00 0.00 71 1018.7
20260502214038 47 310 0.0 0.0 0.00 0.00 0.00 71 1018.9
20260502213537 47 310 0.0 0.0 0.00 0.00 0.00 70 1018.7
20260502213037 47 310 0.0 0.0 0.00 0.00 0.00 71 1018.7